ASTRA 2G

Last updated on Tue Jul 08 2025 00:02:46 GMT+0000 (Coordinated Universal Time)

1 40364U 14089A 25188.56914853 .00000166 00000+0 00000+0 0 9995 2 40364 0.0438 1.7887 0004560 77.2324 79.8409 1.00272366 38516
UTC large
Height (km)
Speed (km/s)
/
Latitude / Longitude
Inclination (degrees)
Orbital Period (minutes)
Azimuth
Elevation
Range (km)
Doppler Factor

Next 0 passes for location: London (51.5072 / 0.1276)

Sorry there are no passes over London.